Simultaneous Nadir Overpasses (SNOs) Predictions

Prediction of SNOs between GOES-17 and TERRA Satellite Orbit:

Table of predicted SNOs for the next 14.0 days since TLE Epoch: 2/4/2023
Index Date Time (GOES-17) GOES-17 Lat,Lon TERRA Lat,Lon Distance(km) Time Diff (sec)
1 02/04/2023 17:33:03 -0.00,-109.80 0.22,-110.87 122.50 80
2 02/06/2023 17:19:43 0.01,-107.47 -0.11,-106.94 59.80 80
3 02/08/2023 17:03:43 0.01,-105.14 -0.46,-103.01 242.66 80
4 02/09/2023 05:21:28 -0.01,-104.52 -0.76,-107.94 389.64 80
5 02/10/2023 16:47:42 0.01,-102.81 -0.76, -99.06 425.63 80
6 02/11/2023 05:05:28 -0.01,-102.19 -0.39,-104.01 206.67 80
7 02/13/2023 04:49:27 -0.01, -99.86 -0.07,-100.07 23.95 80
8 02/15/2023 04:36:06 -0.01, -97.53 0.27, -96.13 158.27 80
9 02/15/2023 16:53:42 0.01, -96.94 0.87,-101.04 465.84 80
10 02/17/2023 04:20:05 -0.01, -95.19 0.63, -92.20 340.61 80
11 02/17/2023 16:37:41 0.01, -94.61 0.51, -97.11 283.48 80
